Weather in Yasny

Russia / Amur Oblast     53°17′20″N   127°59′16″E
temp.,
°C
wind,
m/s
gust,
m/s
humid.,
%
clouds,
%
prec.,
mm/h
press.,
hPa
HPBL,
m
13 may, thu
thu1300:00+7e3791100 0.3 1002443
03:00+7ene3792100 0.5 1001414
06:00+7ene3888100 0.1 1001468
09:00+7ene3789100 0.2 1002466
12:00+8ene2587100 0.3 1002514
15:00+8ne2492100 1.2 1003334
18:00+7nne1395100 1.3 1004159
21:00+6nw1195100 1.5 100619
14 may, fri
fri1400:00+6wsw1195100 0.0 100732
03:00+6sw1195100 0.0 100737
06:00+7ese2393100 0.0 1007115
09:00+10ese3474100 0.2 1006882
12:00+8ese4886100 3.4 10041146
15:00+8se3893100 9.5 1000948
18:00+8sse259499 2.8 998255
21:00+7wsw3598100 4.0 998344
15 may, sat
sat1500:00+5wsw3798100 0.5 997360
03:00+5w2597100 0.6 996289
06:00+4nnw3496100 2.0 996768
09:00+5nw4896100 4.0 996757
12:00+6nw4893100 0.2 9971072
15:00+7nnw488843 0.4 999871
18:00+7wnw4889100 0.2 999525
21:00+6nw41090100 0.3 1000488
16 may, sun
sun1600:00+6nw3889100 0.1 1000231
03:00+4wnw2295100 0.1 100147
06:00+4wnw25913 0.0 1001127
09:00+10nw24615 0.0 1001825
12:00+14nw344522 0.0 9991667
15:00+17wnw243975 0.0 9982233
18:00+15e124797 0.0 998919
21:00+11e2264100 0.0 99939
17 may, mon
mon1700:00+9sse227112 0.0 99819
03:00+7ssw2775100 0.0 998137
06:00+8wsw157693 0.1 997175
09:00+13wsw36600 0.4 997963
12:00+17wnw61132100 0.0 9963246
15:00+15nw683944 0.0 9972050
18:00+14nw474163 0.0 9991851
21:00+8nne22615 0.0 100112